Ithaca, NY

9:55 AM EDT on April 30, 2017 (GMT -0400)
Tompkins County

Weather History for KITH - April, 2013

Change the Weather History Date:

Monday, April 8, 2013

  Actual Average Record
Temperature  
Mean Temperature 50 °F -  
Max Temperature 64 °F 50 °F 84 °F (1991)
Min Temperature 37 °F 30 °F 12 °F (1982)
Degree Days  
Heating Degree Days 14    
Moisture  
Dew Point 34 °F    
Average Humidity 58    
Maximum Humidity 82    
Minimum Humidity 31    
Precipitation  
Precipitation 0.00 in - - ()
Sea Level Pressure  
Sea Level Pressure 30.03 in    
Wind  
Wind Speed 4 mph (SE)    
Max Wind Speed 14 mph    
Max Gust Speed -    
Visibility 10 miles    
Events Rain    
Averages and records for this station are not official NWS values.
T = Trace of Precipitation, MM = Missing Value Source: NWS Daily Summary

Daily Weather History Graph

Daily Weather History Graph

Search for Another Location

Airport or City:

Trip Planner

Search our weather history database for the weather conditions in past years. The results will help you decide how hot, cold, wet, or windy it might be!

Date:

Astronomy

Apr. 08, 2013 Rise Set
Actual Time 6:35 AM EDT 7:39 PM EDT
Civil Twilight 6:07 AM EDT 8:08 PM EDT
Nautical Twilight 5:32 AM EDT 8:43 PM EDT
Astronomical Twilight 4:56 AM EDT 9:19 PM EDT
Moon 5:26 AM EDT (4/8) 6:10 PM EDT (4/8)
Length of Visible Light 14h 01m
Length of Day
13h 04m
Waning Crescent, 3% of the Moon is Illuminated
Apr 8
Waning Crescent
Apr 10
New
Apr 18
First Quarter
Apr 25
Full
May 2
Last Quarter

Hourly Weather History & Observations

Time (EDT) Temp. Windchill Dew Point Humidity Pressure Visibility Wind Dir Wind Speed Gust Speed Precip Events Conditions
12:56 AM 39.9 °F 35.8 °F 32.0 °F 73% 30.05 in 10.0 mi North 5.8 mph - N/A   Scattered Clouds
1:05 AM 41.0 °F 38.0 °F 33.8 °F 76% 30.04 in 10.0 mi North 4.6 mph - N/A   Mostly Cloudy
1:56 AM 39.9 °F 36.7 °F 32.0 °F 73% 30.06 in 10.0 mi North 4.6 mph - N/A   Overcast
2:56 AM 39.9 °F - 32.0 °F 73% 30.06 in 10.0 mi Calm Calm - N/A   Overcast
3:14 AM 39.2 °F 37.0 °F 32.0 °F 75% 30.05 in 10.0 mi North 3.5 mph - N/A   Overcast
3:21 AM 39.2 °F - 32.0 °F 75% 30.05 in 10.0 mi Calm Calm - N/A   Overcast
3:36 AM 39.2 °F - 32.0 °F 75% 30.05 in 10.0 mi Calm Calm - N/A   Overcast
3:56 AM 38.8 °F - 32.0 °F 76% 30.07 in 10.0 mi Calm Calm - N/A   Overcast
4:56 AM 38.8 °F - 32.0 °F 76% 30.08 in 10.0 mi Calm Calm - N/A   Overcast
5:56 AM 37.9 °F - 32.0 °F 79% 30.09 in 10.0 mi Calm Calm - N/A   Overcast
6:08 AM 37.4 °F - 32.0 °F 81% 30.08 in 10.0 mi Calm Calm - N/A   Overcast
6:56 AM 37.9 °F - 32.9 °F 82% 30.10 in 10.0 mi Calm Calm - N/A   Overcast
7:56 AM 39.9 °F - 32.9 °F 76% 30.12 in 10.0 mi Calm Calm - N/A   Overcast
8:56 AM 41.9 °F 40.0 °F 32.0 °F 68% 30.13 in 10.0 mi NNE 3.5 mph - N/A   Scattered Clouds
9:56 AM 45.9 °F - 32.9 °F 61% 30.14 in 10.0 mi Calm Calm - N/A   Scattered Clouds
10:56 AM 46.9 °F - 32.9 °F 58% 30.14 in 10.0 mi Variable 3.5 mph - N/A   Clear
11:56 AM 52.0 °F - 32.9 °F 48% 30.11 in 10.0 mi WSW 5.8 mph - N/A   Clear
12:56 PM 54.9 °F - 32.9 °F 43% 30.09 in 10.0 mi Calm Calm - N/A   Clear
1:56 PM 59.9 °F - 32.9 °F 36% 30.05 in 10.0 mi Calm Calm - N/A   Clear
2:56 PM 61.9 °F - 34.0 °F 35% 30.02 in 10.0 mi Variable 5.8 mph - N/A   Clear
3:56 PM 64.9 °F - 34.0 °F 32% 29.99 in 10.0 mi South 6.9 mph - N/A   Clear
4:56 PM 63.9 °F - 32.9 °F 31% 29.96 in 10.0 mi SE 9.2 mph - N/A   Partly Cloudy
5:56 PM 63.9 °F - 34.0 °F 33% 29.95 in 10.0 mi SE 5.8 mph - N/A   Scattered Clouds
6:56 PM 63.9 °F - 34.0 °F 33% 29.95 in 10.0 mi ESE 3.5 mph - 0.00 in   Scattered Clouds
7:56 PM 61.9 °F - 34.9 °F 36% 29.91 in 10.0 mi SSE 10.4 mph - N/A   Mostly Cloudy
8:56 PM 61.9 °F - 36.0 °F 38% 29.89 in 10.0 mi SSE 11.5 mph - N/A   Scattered Clouds
9:56 PM 63.9 °F - 38.8 °F 40% 29.88 in 10.0 mi South 13.8 mph - N/A   Mostly Cloudy
10:56 PM 61.9 °F - 43.0 °F 50% 29.88 in 10.0 mi South 10.4 mph - 0.00 in Rain Light Rain
11:56 PM 61.9 °F - 43.9 °F 52% 29.86 in 10.0 mi South 9.2 mph - 0.00 in   Partly Cloudy